Weather History for KAVC - March, 2014

Change the Weather History Date:

Friday, March 21, 2014

  Actual Average (KEMV) Record (KEMV)
Temperature  
Mean Temperature 50 °F -  
Max Temperature 69 °F 59 °F 77 °F (2012)
Min Temperature 30 °F 34 °F 20 °F (1986)
Degree Days  
Heating Degree Days 16    
Moisture  
Dew Point 29 °F    
Average Humidity 46    
Maximum Humidity 86    
Minimum Humidity 23    
Precipitation  
Precipitation 0.00 in - - ()
Sea Level Pressure  
Sea Level Pressure 30.12 in    
Wind  
Wind Speed 4 mph (SSW)    
Max Wind Speed 14 mph    
Max Gust Speed 22 mph    
Visibility 10 miles    
Events      
Averages and records for this station are not official NWS values.
T = Trace of Precipitation, MM = Missing Value Source: NWS Daily Summary

Daily Weather History Graph

Daily Weather History Graph

Search for Another Location

Airport or City:

Trip Planner

Search our weather history database for the weather conditions in past years. The results will help you decide how hot, cold, wet, or windy it might be!

Date:

Astronomy

Mar. 21, 2014 Rise Set
Actual Time 7:14 AM EDT 7:24 PM EDT
Civil Twilight 6:48 AM EDT 7:50 PM EDT
Nautical Twilight 6:18 AM EDT 8:20 PM EDT
Astronomical Twilight 5:47 AM EDT 8:51 PM EDT
Moon No Moon Rise 10:11 AM EDT (3/21)
Length of Visible Light 13h 02m
Length of Day
12h 10m
Waning Gibbous, 75% of the Moon is Illuminated
Mar 21
Waning Gibbous
Mar 23
Last Quarter
Mar 30
New
Apr 7
First Quarter
Apr 15
Full

Hourly Weather History & Observations

Time (EDT) Temp. Windchill Dew Point Humidity Pressure Visibility Wind Dir Wind Speed Gust Speed Precip Events Conditions
12:15 AM 44.6 °F 41.4 °F 24.8 °F 46% 30.09 in 10.0 mi North 5.8 mph - N/A   Clear
12:35 AM 42.8 °F 39.3 °F 24.8 °F 49% 30.09 in 10.0 mi North 5.8 mph - N/A   Clear
12:55 AM 42.8 °F 41.1 °F 24.8 °F 49% 30.09 in 10.0 mi North 3.5 mph - N/A   Clear
1:15 AM 44.6 °F 43.1 °F 23.0 °F 43% 30.10 in 10.0 mi North 3.5 mph - N/A   Clear
1:35 AM 37.4 °F - 28.4 °F 70% 30.10 in 10.0 mi Calm Calm - N/A   Clear
1:55 AM 37.4 °F - 26.6 °F 65% 30.09 in 10.0 mi Calm Calm - N/A   Clear
2:15 AM 33.8 °F - 26.6 °F 75% 30.11 in 10.0 mi Calm Calm - N/A   Clear
2:35 AM 35.6 °F - 28.4 °F 75% 30.11 in 10.0 mi Calm Calm - N/A   Clear
2:55 AM 35.6 °F - 26.6 °F 70% 30.12 in 10.0 mi Calm Calm - N/A   Clear
3:15 AM 37.4 °F - 26.6 °F 65% 30.12 in 10.0 mi Calm Calm - N/A   Clear
3:35 AM 37.4 °F - 24.8 °F 60% 30.12 in 10.0 mi Calm Calm - N/A   Clear
3:55 AM 35.6 °F - 30.2 °F 81% 30.12 in 10.0 mi Calm Calm - N/A   Clear
4:15 AM 33.8 °F - 28.4 °F 81% 30.12 in 10.0 mi Calm Calm - N/A   Clear
4:35 AM 33.8 °F - 26.6 °F 75% 30.12 in 10.0 mi Calm Calm - N/A   Clear
4:55 AM 32.0 °F - 26.6 °F 80% 30.13 in 10.0 mi Calm Calm - N/A   Clear
5:15 AM 30.2 °F - 26.6 °F 86% 30.12 in 10.0 mi Calm Calm - N/A   Clear
5:35 AM 33.8 °F - 26.6 °F 75% 30.13 in 10.0 mi Calm Calm - N/A   Clear
5:55 AM 30.2 °F - 26.6 °F 86% 30.13 in 10.0 mi Calm Calm - N/A   Clear
6:15 AM 33.8 °F - 28.4 °F 81% 30.14 in 10.0 mi Calm Calm - N/A   Clear
6:35 AM 33.8 °F 30.8 °F 26.6 °F 75% 30.15 in 10.0 mi SSW 3.5 mph - N/A   Clear
6:55 AM 33.8 °F - 26.6 °F 75% 30.15 in 10.0 mi Calm Calm - N/A   Clear
7:15 AM 35.6 °F 32.8 °F 24.8 °F 65% 30.14 in 10.0 mi SSW 3.5 mph - N/A   Clear
7:35 AM 35.6 °F - 26.6 °F 70% 30.16 in 10.0 mi Calm Calm - N/A   Clear
7:55 AM 35.6 °F - 26.6 °F 70% 30.17 in 10.0 mi Calm Calm - N/A   Clear
8:15 AM 37.4 °F 34.9 °F 26.6 °F 65% 30.17 in 10.0 mi SSW 3.5 mph - N/A   Clear
8:35 AM 41.0 °F 39.0 °F 28.4 °F 61% 30.17 in 10.0 mi SSW 3.5 mph - N/A   Clear
8:55 AM 44.6 °F 43.1 °F 28.4 °F 53% 30.18 in 10.0 mi SSW 3.5 mph - N/A   Clear
9:15 AM 48.2 °F - 28.4 °F 46% 30.18 in 10.0 mi SSW 4.6 mph - N/A   Clear
9:35 AM 51.8 °F - 30.2 °F 44% 30.18 in 10.0 mi SSW 5.8 mph - N/A   Clear
9:55 AM 53.6 °F - 28.4 °F 38% 30.18 in 10.0 mi SSW 6.9 mph - N/A   Clear
10:15 AM 55.4 °F - 28.4 °F 36% 30.18 in 10.0 mi SW 4.6 mph - N/A   Clear
10:35 AM 57.2 °F - 28.4 °F 33% 30.18 in 10.0 mi SW 8.1 mph - N/A   Clear
10:55 AM 59.0 °F - 30.2 °F 34% 30.17 in 10.0 mi WSW 8.1 mph - N/A   Clear
11:15 AM 60.8 °F - 30.2 °F 31% 30.17 in 10.0 mi WSW 9.2 mph - N/A   Clear
11:35 AM 62.6 °F - 30.2 °F 30% 30.16 in 10.0 mi SW 9.2 mph 16.1 mph N/A   Clear
11:55 AM 62.6 °F - 30.2 °F 30% 30.16 in 10.0 mi WSW 8.1 mph 19.6 mph N/A   Clear
12:15 PM 62.6 °F - 30.2 °F 30% 30.16 in 10.0 mi SW 5.8 mph - N/A   Clear
12:35 PM 64.4 °F - 30.2 °F 28% 30.16 in 10.0 mi West 6.9 mph - N/A   Clear
12:55 PM 64.4 °F - 30.2 °F 28% 30.15 in 10.0 mi West 6.9 mph - N/A   Clear
1:15 PM 64.4 °F - 30.2 °F 28% 30.14 in 10.0 mi South 9.2 mph - N/A   Clear
1:35 PM 66.2 °F - 32.0 °F 28% 30.13 in 10.0 mi SW 13.8 mph 20.7 mph N/A   Clear
1:55 PM 66.2 °F - 32.0 °F 28% 30.12 in 10.0 mi SW 6.9 mph - N/A   Clear
2:15 PM 66.2 °F - 30.2 °F 26% 30.11 in 10.0 mi WSW 8.1 mph 19.6 mph N/A   Clear
2:35 PM 66.2 °F - 30.2 °F 26% 30.11 in 10.0 mi SSW 11.5 mph 21.9 mph N/A   Clear
2:55 PM 68.0 °F - 30.2 °F 24% 30.09 in 10.0 mi SW 10.4 mph - N/A   Clear
3:15 PM 69.8 °F - 30.2 °F 23% 30.09 in 10.0 mi WSW 9.2 mph 20.7 mph N/A   Clear
3:35 PM 69.8 °F - 32.0 °F 25% 30.09 in 10.0 mi SW 11.5 mph - N/A   Clear
3:55 PM 69.8 °F - 30.2 °F 23% 30.08 in 10.0 mi SW 9.2 mph 16.1 mph N/A   Clear
4:15 PM 69.8 °F - 30.2 °F 23% 30.07 in 10.0 mi South 12.7 mph 18.4 mph N/A   Clear
4:35 PM 69.8 °F - 30.2 °F 23% 30.08 in 10.0 mi SW 10.4 mph 18.4 mph N/A   Clear
4:55 PM 69.8 °F - 30.2 °F 23% 30.07 in 10.0 mi SW 9.2 mph 17.3 mph N/A   Clear
5:15 PM 69.8 °F - 30.2 °F 23% 30.07 in 10.0 mi SW 12.7 mph 20.7 mph N/A   Clear
5:35 PM 69.8 °F - 30.2 °F 23% 30.07 in 10.0 mi SSW 11.5 mph 19.6 mph N/A   Clear
5:55 PM 68.0 °F - 30.2 °F 24% 30.07 in 10.0 mi SSW 10.4 mph - N/A   Clear
6:15 PM 68.0 °F - 30.2 °F 24% 30.08 in 10.0 mi SSW 8.1 mph - N/A   Clear
6:35 PM 66.2 °F - 30.2 °F 26% 30.08 in 4.0 mi SSW 10.4 mph - N/A   Haze
6:55 PM 64.4 °F - 30.2 °F 28% 30.08 in 10.0 mi SSW 6.9 mph - N/A   Clear
7:15 PM 62.6 °F - 30.2 °F 30% 30.09 in 10.0 mi South 3.5 mph - N/A   Clear
7:35 PM 60.8 °F - 30.2 °F 31% 30.08 in 10.0 mi South 4.6 mph - N/A   Clear
7:55 PM 55.4 °F - 33.8 °F 44% 30.08 in 10.0 mi Calm Calm - N/A   Clear
8:15 PM 55.4 °F - 33.8 °F 44% 30.08 in 10.0 mi Calm Calm - N/A   Clear
8:35 PM 53.6 °F - 33.8 °F 47% 30.08 in 10.0 mi South 3.5 mph - N/A   Clear
8:55 PM 51.8 °F - 35.6 °F 54% 30.09 in 10.0 mi South 3.5 mph - N/A   Clear
9:15 PM 53.6 °F - 32.0 °F 44% 30.09 in 10.0 mi South 6.9 mph - N/A   Clear
9:35 PM 57.2 °F - 30.2 °F 36% 30.09 in 10.0 mi South 5.8 mph - N/A   Clear
9:55 PM 55.4 °F - 30.2 °F 38% 30.09 in 10.0 mi South 5.8 mph - N/A   Clear
10:15 PM 55.4 °F - 30.2 °F 38% 30.09 in 10.0 mi South 6.9 mph - N/A   Clear
10:35 PM 53.6 °F - 30.2 °F 41% 30.09 in 10.0 mi South 6.9 mph - N/A   Clear
10:55 PM 53.6 °F - 32.0 °F 44% 30.09 in 10.0 mi South 6.9 mph - N/A   Clear
11:15 PM 51.8 °F - 33.8 °F 50% 30.10 in 10.0 mi South 6.9 mph - N/A   Clear
11:35 PM 53.6 °F - 32.0 °F 44% 30.10 in 10.0 mi South 5.8 mph - N/A   Clear
11:55 PM 53.6 °F - 30.2 °F 41% 30.09 in 10.0 mi South 4.6 mph - N/A   Clear